[[{"header":{"parameterUnit":"m.s-1","parameterCategory":2,"la1":30.2992,"la2":30.254,"lo1":-89.0895,"lo2":-89.0443,"dy":0.0025,"dx":0.0025,"nx":19,"ny":19,"refTime":"2026-05-09T09:00:00:Z","depth":"0","parameterNumber":2,"parameterNumberName":"U-component_of_CURRENTS"},"data":[0,0,0,-0.3886,-0.389,-0.4049,-0.4049,-0.3966,-0.3965,0,0,0,0,0,0,0,0,0,0,0,-0.3795,-0.3795,-0.3886,-0.3891,-0.4049,-0.405,-0.3966,-0.3965,0,0,0,0,0,0,0,0,0,0,0,-0.3794,-0.3795,-0.3796,-0.3891,-0.4049,-0.405,-0.3967,-0.3913,0,0,0,0,0,0,0,0,0,0,-0.3792,-0.3761,-0.3795,-0.3796,-0.3892,-0.4049,-0.405,-0.3913,-0.3916,-0.3819,0,-0.3841,0,-0.3919,-0.3954,-0.3954,0,0,0,-0.387,-0.3759,-0.3807,-0.3796,-0.3894,-0.4049,-0.3972,-0.3917,-0.392,-0.3821,-0.3841,-0.3841,-0.3918,-0.3954,-0.3953,-0.3928,-0.3928,0,0,-0.3861,-0.3813,-0.3806,-0.3809,-0.3925,-0.3967,-0.3977,-0.3922,-0.3909,-0.3841,-0.3841,-0.3916,-0.3952,-0.3951,-0.3927,-0.3928,0,0,0,-0.385,-0.3807,-0.3862,-0.3808,-0.3871,-0.3972,-0.3983,-0.3912,-0.3932,-0.3841,-0.3915,-0.3952,-0.395,-0.3926,-0.3927,-0.3957,0,0,0,-0.3844,-0.3803,-0.3857,-0.3829,-0.3874,-0.3936,-0.3974,-0.3935,-0.3934,-0.3916,-0.3952,-0.3948,-0.3925,-0.3926,-0.3954,-0.3945,0,0,0,-0.3789,-0.3798,-0.3816,-0.3826,-0.3911,-0.3941,-0.3959,-0.3938,-0.3977,-0.3954,-0.3948,-0.3924,-0.3926,-0.3952,-0.3941,-0.384,0,0,0,-0.3736,-0.3805,-0.3813,-0.3902,-0.391,-0.4022,-0.3961,-0.4006,-0.3994,-0.3951,-0.3925,-0.3927,-0.3951,-0.3939,-0.384,-0.3427,-0.3394,0,0,-0.381,-0.3812,-0.3869,-0.3884,-0.4001,-0.3999,-0.4081,-0.4025,-0.3989,-0.3915,-0.3918,-0.3955,-0.3941,-0.384,-0.3548,-0.3509,0,0,0,-0.3886,-0.3915,-0.3952,-0.4017,-0.408,-0.4103,-0.4098,-0.407,-0.4032,-0.4,-0.3989,-0.3979,-0.3913,-0.3667,-0.3638,-0.3472,-0.3936,-0.3936,-0.3936,-0.3889,-0.3952,-0.403,-0.4097,-0.4142,-0.4166,-0.4162,-0.4119,-0.4074,-0.4072,-0.403,-0.4011,-0.3755,-0.3727,-0.3566,-0.4072,-0.4072,-0.4072,-0.4072,-0.3963,-0.3996,-0.4054,-0.415,-0.4164,-0.4202,-0.419,-0.416,-0.4078,-0.4088,-0.4021,-0.3746,-0.3695,-0.3535,-0.4075,-0.4075,-0.4074,-0.4074,-0.4074,-0.3924,-0.3951,-0.4013,-0.4101,-0.415,-0.419,-0.4127,-0.4141,-0.4085,-0.405,-0.368,-0.3673,-0.3497,-0.3979,-0.3979,-0.3978,-0.3978,-0.3977,-0.3977,-0.3832,-0.3908,-0.3938,-0.4038,-0.4076,-0.4087,-0.4063,-0.3964,-0.3748,-0.3655,-0.365,-0.3449,-0.398,-0.3943,-0.397,-0.3972,-0.3972,-0.3973,-0.3974,-0.375,-0.3768,-0.3808,-0.3845,-0.3899,-0.3684,-0.3769,-0.3368,-0.3301,-0.3083,-0.2942,-0.3406,-0.3325,-0.3344,-0.3291,-0.3148,-0.3148,-0.3148,-0.3148,-0.3637,-0.3669,-0.3629,-0.3627,-0.3588,-0.3481,-0.2923,-0.2667,-0.2468,-0.2353,-0.2522,-0.2461,-0.2502,-0.2376,-0.2416,-0.2347,-0.1969,-0.1968,-0.1967,-0.3522,-0.354,-0.3417,-0.3434,-0.3397,-0.3088,-0.2388,-0.1948,-0.1832,-0.1925,-0.2383,-0.2433,-0.2368,-0.2445,-0.2273,-0.2343,-0.2241,0,0]},{"header":{"parameterUnit":"m.s-1","parameterCategory":2,"la1":30.2992,"la2":30.254,"lo1":-89.0895,"lo2":-89.0443,"dy":0.0025,"dx":0.0025,"nx":19,"ny":19,"refTime":"2026-05-09T09:00:00:Z","depth":"0","parameterNumber":3,"parameterNumberName":"V-component_of_CURRENTS"},"data":[0,0,0,-0.0561,-0.0559,-0.0399,-0.0398,-0.0209,-0.0208,0,0,0,0,0,0,0,0,0,0,0,-0.0624,-0.0623,-0.0562,-0.0558,-0.0399,-0.0398,-0.021,-0.0208,0,0,0,0,0,0,0,0,0,0,0,-0.0624,-0.0624,-0.0623,-0.0558,-0.0399,-0.0398,-0.021,-0.0322,0,0,0,0,0,0,0,0,0,0,-0.0473,-0.0531,-0.0624,-0.0623,-0.0557,-0.0399,-0.0398,-0.0327,-0.0315,-0.0293,0,-0.0284,0,-0.0248,-0.0198,-0.0197,0,0,0,-0.0538,-0.0541,-0.0505,-0.0623,-0.0556,-0.04,-0.0465,-0.032,-0.0306,-0.0277,-0.0281,-0.0274,-0.0244,-0.0197,-0.0196,-0.0023,-0.0022,0,0,-0.0547,-0.0581,-0.0515,-0.0498,-0.0536,-0.047,-0.046,-0.0311,-0.0303,-0.0281,-0.0269,-0.0241,-0.0196,-0.0194,-0.0023,-0.0022,0,0,0,-0.0586,-0.0587,-0.0554,-0.0506,-0.0479,-0.0466,-0.0455,-0.0309,-0.03,-0.0267,-0.0239,-0.0195,-0.0193,-0.0024,-0.0023,-0.011,0,0,0,-0.059,-0.0611,-0.0559,-0.0575,-0.0482,-0.0388,-0.0456,-0.0311,-0.0292,-0.024,-0.0195,-0.0191,-0.0025,-0.0024,-0.011,-0.0185,0,0,0,-0.0627,-0.0614,-0.0605,-0.0578,-0.0517,-0.039,-0.0371,-0.0305,-0.0277,-0.0197,-0.0191,-0.0025,-0.0024,-0.0109,-0.0182,-0.0217,0,0,0,-0.0654,-0.0659,-0.0606,-0.0591,-0.0519,-0.0427,-0.0371,-0.0293,-0.023,-0.0194,-0.0025,-0.0023,-0.0109,-0.018,-0.0215,-0.02,-0.0209,0,0,-0.0679,-0.0662,-0.0651,-0.0601,-0.0546,-0.0446,-0.0362,-0.0265,-0.019,-0.0074,-0.0069,-0.011,-0.0182,-0.0217,-0.0098,-0.0111,0,0,0,-0.0671,-0.0672,-0.0642,-0.0595,-0.0508,-0.0426,-0.0308,-0.0247,-0.0137,-0.0146,-0.0049,-0.0091,-0.0112,-0.0095,-0.0103,0.0159,-0.0015,-0.0015,-0.0015,-0.0764,-0.0707,-0.0688,-0.0608,-0.0539,-0.0398,-0.0334,-0.022,-0.0141,-0.0097,-0.0116,-0.0144,-0.0121,-0.0129,0.0143,-0.0042,-0.0042,-0.0042,-0.0042,-0.0834,-0.0834,-0.0739,-0.0709,-0.0598,-0.0518,-0.0349,-0.0286,-0.0199,-0.0124,-0.0139,-0.0129,-0.0144,0.015,-0.0047,-0.0046,-0.0045,-0.0045,-0.0045,-0.093,-0.0922,-0.0891,-0.0842,-0.0759,-0.0613,-0.0557,-0.0426,-0.0304,-0.0306,-0.0257,-0.0255,-0.0041,-0.03,-0.0301,-0.0301,-0.0301,-0.0302,-0.0302,-0.1058,-0.1017,-0.1053,-0.0978,-0.0949,-0.0866,-0.0691,-0.0623,-0.0477,-0.0364,-0.0363,0.0008,-0.0223,-0.0263,-0.0309,-0.0308,-0.0307,-0.0306,-0.0306,-0.1184,-0.1184,-0.1239,-0.1239,-0.1153,-0.1089,-0.0936,-0.0748,-0.0661,-0.0591,-0.008,-0.0375,-0.0354,-0.0344,-0.0384,-0.046,-0.046,-0.046,-0.046,-0.1295,-0.1291,-0.1372,-0.138,-0.1333,-0.1182,-0.1086,-0.0828,-0.0369,-0.0081,0.0007,0.0127,0.0122,0.0179,0.0178,0.0152,0.0215,0.0216,0.0218,-0.1389,-0.1405,-0.1466,-0.1446,-0.1379,-0.1268,-0.1122,-0.0709,0.0014,0.0274,0.037,0.0341,0.0551,0.052,0.0638,0.0614,0.0582,0,0]}],[{"header":{"parameterUnit":"m.s-1","parameterCategory":2,"la1":30.2992,"la2":30.254,"lo1":-89.0895,"lo2":-89.0443,"dy":0.0025,"dx":0.0025,"nx":19,"ny":19,"refTime":"2026-05-09T09:00:00:Z","depth":"2","parameterNumber":2,"parameterNumberName":"U-component_of_CURRENTS"},"data":[0,0,0,-0.1981,-0.1985,-0.2137,-0.2138,-0.2133,-0.2133,0,0,0,0,0,0,0,0,0,0,0,-0.1913,-0.1914,-0.1981,-0.1985,-0.2137,-0.2138,-0.2133,-0.2133,0,0,0,0,0,0,0,0,0,0,0,-0.1912,-0.1914,-0.1915,-0.1986,-0.2137,-0.2138,-0.2133,-0.2063,0,0,0,0,0,0,0,0,0,0,-0.1937,-0.1899,-0.1913,-0.1915,-0.1987,-0.2137,-0.2138,-0.2061,-0.2067,-0.2014,0,-0.2051,0,-0.2105,-0.213,-0.213,0,0,0,-0.1964,-0.1895,-0.1954,-0.1915,-0.1989,-0.2137,-0.2063,-0.2066,-0.2072,-0.2021,-0.2052,-0.2054,-0.2104,-0.213,-0.213,-0.2228,-0.2229,0,0,-0.1955,-0.1915,-0.1951,-0.1959,-0.2042,-0.2058,-0.2068,-0.2072,-0.2067,-0.2052,-0.2055,-0.2104,-0.2129,-0.2129,-0.2226,-0.2228,0,0,0,-0.1946,-0.1909,-0.1972,-0.1957,-0.2008,-0.2063,-0.2074,-0.2067,-0.2094,-0.2056,-0.2104,-0.2129,-0.2129,-0.2225,-0.2227,-0.2329,0,0,0,-0.1939,-0.1906,-0.1968,-0.1942,-0.201,-0.2065,-0.2068,-0.2094,-0.2097,-0.2104,-0.2129,-0.2128,-0.2223,-0.2226,-0.2323,-0.2379,0,0,0,-0.1903,-0.1901,-0.1929,-0.194,-0.2021,-0.2068,-0.2095,-0.2096,-0.2126,-0.213,-0.2128,-0.2222,-0.2225,-0.2317,-0.237,-0.2532,0,0,0,-0.1843,-0.1904,-0.1927,-0.2014,-0.202,-0.2152,-0.2096,-0.2164,-0.2177,-0.2129,-0.2223,-0.2227,-0.2316,-0.2364,-0.2525,-0.2094,-0.2094,0,0,-0.1892,-0.1908,-0.1966,-0.1994,-0.2132,-0.2128,-0.2259,-0.2241,-0.2208,-0.2199,-0.2204,-0.2325,-0.2369,-0.2531,-0.2286,-0.2279,0,0,0,-0.1966,-0.202,-0.2064,-0.2152,-0.2225,-0.2314,-0.2319,-0.2337,-0.2368,-0.2238,-0.2364,-0.239,-0.2488,-0.2214,-0.221,-0.2242,-0.2242,-0.2242,-0.2241,-0.2065,-0.2105,-0.2205,-0.2281,-0.235,-0.2437,-0.2508,-0.2533,-0.2457,-0.2511,-0.2501,-0.2732,-0.2438,-0.2431,-0.2527,-0.2528,-0.2528,-0.2529,-0.2529,-0.2276,-0.2292,-0.2353,-0.2493,-0.2531,-0.2628,-0.2685,-0.2681,-0.2783,-0.2667,-0.2757,-0.2367,-0.2431,-0.2538,-0.2536,-0.2535,-0.2534,-0.2533,-0.2533,-0.2352,-0.2314,-0.2481,-0.2633,-0.2687,-0.274,-0.2738,-0.2857,-0.2904,-0.2967,-0.2696,-0.2687,-0.2809,-0.3021,-0.3022,-0.3023,-0.3024,-0.3024,-0.3025,-0.2315,-0.2416,-0.2528,-0.2723,-0.2705,-0.2762,-0.2807,-0.2822,-0.2856,-0.28,-0.2796,-0.29,-0.2884,-0.284,-0.304,-0.3038,-0.3036,-0.3034,-0.3033,-0.2304,-0.2388,-0.2473,-0.2538,-0.2561,-0.2428,-0.2577,-0.2521,-0.2639,-0.2604,-0.2715,-0.2717,-0.2658,-0.2652,-0.2604,-0.2733,-0.2733,-0.2733,-0.2733,-0.2266,-0.2328,-0.2365,-0.234,-0.2262,-0.2237,-0.1976,-0.2005,-0.2207,-0.226,-0.2283,-0.202,-0.2039,-0.1935,-0.1946,-0.188,-0.1822,-0.1821,-0.182,-0.233,-0.2267,-0.2274,-0.226,-0.2087,-0.1923,-0.1666,-0.154,-0.1577,-0.1801,-0.23,-0.2638,-0.2293,-0.2309,-0.2176,-0.2183,-0.2087,0,0]},{"header":{"parameterUnit":"m.s-1","parameterCategory":2,"la1":30.2992,"la2":30.254,"lo1":-89.0895,"lo2":-89.0443,"dy":0.0025,"dx":0.0025,"nx":19,"ny":19,"refTime":"2026-05-09T09:00:00:Z","depth":"2","parameterNumber":3,"parameterNumberName":"V-component_of_CURRENTS"},"data":[0,0,0,-0.0048,-0.0044,0.0183,0.0184,0.0485,0.0488,0,0,0,0,0,0,0,0,0,0,0,-0.0148,-0.0148,-0.0048,-0.0044,0.0183,0.0185,0.0485,0.0488,0,0,0,0,0,0,0,0,0,0,0,-0.0149,-0.0148,-0.0148,-0.0043,0.0183,0.0185,0.0484,0.0318,0,0,0,0,0,0,0,0,0,0,0.01,-0.0018,-0.0148,-0.0148,-0.0042,0.0182,0.0185,0.031,0.0328,0.0375,0,0.0374,0,0.0434,0.0505,0.0506,0,0,0,-0.0011,-0.0034,0.0037,-0.0148,-0.004,0.0182,0.009,0.0321,0.0341,0.0399,0.0378,0.0391,0.0439,0.0507,0.0508,0.0658,0.0658,0,0,-0.0024,-0.0101,0.0022,0.0048,-0.0028,0.0082,0.0096,0.0333,0.0329,0.038,0.0398,0.0444,0.0508,0.051,0.0659,0.0658,0,0,0,-0.0082,-0.0111,-0.0045,0.0034,0.0073,0.0088,0.0105,0.0319,0.0341,0.0402,0.0447,0.051,0.0513,0.0659,0.0659,0.0536,0,0,0,-0.0088,-0.0145,-0.0052,-0.0094,0.0067,0.0195,0.0084,0.0325,0.0354,0.0446,0.051,0.0516,0.0659,0.0659,0.054,0.0456,0,0,0,-0.015,-0.0151,-0.0138,-0.01,-0.0011,0.0193,0.0231,0.0333,0.0381,0.0506,0.0516,0.066,0.0659,0.0543,0.0464,0.0397,0,0,0,-0.0215,-0.0243,-0.0141,-0.0145,-0.0014,0.0112,0.023,0.033,0.0422,0.0511,0.0659,0.0659,0.0545,0.0468,0.0402,0.0366,0.034,0,0,-0.0286,-0.0254,-0.0249,-0.0152,-0.0088,0.0086,0.0179,0.0336,0.0432,0.0589,0.0594,0.0539,0.0464,0.0398,0.0325,0.03,0,0,0,-0.0292,-0.0314,-0.027,-0.0209,-0.0065,0.0063,0.0237,0.0326,0.0449,0.048,0.0559,0.0515,0.0477,0.0467,0.0448,0.0655,0.0655,0.0655,0.0656,-0.0518,-0.0412,-0.0401,-0.0268,-0.0171,0.0053,0.015,0.03,0.0409,0.0427,0.0431,0.0315,0.0305,0.0289,0.0468,0.0467,0.0467,0.0466,0.0466,-0.0673,-0.0651,-0.0514,-0.0478,-0.0284,-0.0186,0.0077,0.0163,0.0261,0.036,0.033,0.0358,0.026,0.0457,0.0459,0.046,0.0461,0.0462,0.0462,-0.0831,-0.079,-0.0771,-0.0686,-0.0549,-0.0321,-0.0219,-0.0019,0.0101,0.0092,0.0099,0.0101,0.0215,0.0074,0.0073,0.0073,0.0072,0.0072,0.0071,-0.0979,-0.0935,-0.0964,-0.087,-0.0781,-0.0642,-0.0384,-0.0327,-0.0188,-0.006,-0.0059,0.0183,0.0195,0.0194,0.0061,0.0063,0.0064,0.0065,0.0066,-0.1112,-0.1127,-0.1154,-0.1116,-0.0942,-0.086,-0.0655,-0.0546,-0.0472,-0.0448,-0.0123,-0.0115,-0.0084,-0.0066,-0.0072,-0.0267,-0.0267,-0.0267,-0.0267,-0.1216,-0.1226,-0.1259,-0.1201,-0.1111,-0.0926,-0.0897,-0.0667,-0.0441,-0.0257,-0.0257,-0.0159,-0.0147,-0.0111,-0.0092,-0.0095,-0.0295,-0.0295,-0.0295,-0.1299,-0.1295,-0.1336,-0.1293,-0.1152,-0.1059,-0.0973,-0.059,-0.0235,-0.029,-0.0196,-0.0281,-0.0132,-0.0115,-0.0047,-0.0021,-0.0021,0,0]}],[{"header":{"parameterUnit":"m.s-1","parameterCategory":2,"la1":30.2992,"la2":30.254,"lo1":-89.0895,"lo2":-89.0443,"dy":0.0025,"dx":0.0025,"nx":19,"ny":19,"refTime":"2026-05-09T09:00:00:Z","depth":"4","parameterNumber":2,"parameterNumberName":"U-component_of_CURRENTS"},"data":[0,0,0,-0.0709,-0.0713,-0.0886,-0.0887,-0.1032,-0.1033,0,0,0,0,0,0,0,0,0,0,0,-0.0638,-0.0639,-0.0709,-0.0713,-0.0886,-0.0887,-0.1032,-0.1033,0,0,0,0,0,0,0,0,0,0,0,-0.0638,-0.0639,-0.064,-0.0714,-0.0886,-0.0887,-0.1032,-0.0921,0,0,0,0,0,0,0,0,0,0,-0.0762,-0.0706,-0.0639,-0.064,-0.0715,-0.0886,-0.0887,-0.0917,-0.0928,-0.0931,0,-0.0953,0,-0.0999,-0.1041,-0.1042,0,0,0,-0.0717,-0.0697,-0.0745,-0.064,-0.0716,-0.0885,-0.0809,-0.0924,-0.0936,-0.0946,-0.0956,-0.0962,-0.1001,-0.1042,-0.1042,-0.1146,-0.1146,0,0,-0.0707,-0.067,-0.0737,-0.0753,-0.0754,-0.0803,-0.0814,-0.0932,-0.0939,-0.0956,-0.0967,-0.1004,-0.1043,-0.1043,-0.1146,-0.1146,0,0,0,-0.0677,-0.0663,-0.0711,-0.0746,-0.0785,-0.0808,-0.0821,-0.0934,-0.095,-0.0968,-0.1006,-0.1043,-0.1045,-0.1145,-0.1146,-0.1212,0,0,0,-0.0672,-0.0646,-0.0706,-0.0686,-0.0783,-0.0873,-0.082,-0.0942,-0.0958,-0.1005,-0.1043,-0.1046,-0.1145,-0.1146,-0.121,-0.1151,0,0,0,-0.0632,-0.0642,-0.066,-0.0683,-0.0759,-0.0872,-0.0897,-0.0947,-0.0979,-0.1042,-0.1046,-0.1145,-0.1146,-0.1208,-0.115,-0.1235,0,0,0,-0.059,-0.0604,-0.0659,-0.0699,-0.0757,-0.0871,-0.0897,-0.0993,-0.105,-0.1044,-0.1145,-0.1146,-0.1207,-0.115,-0.1233,-0.1129,0,0,0,-0.058,-0.0602,-0.0629,-0.0683,-0.0772,-0.0847,-0.0952,-0.1038,-0.1055,-0.1101,-0.1105,-0.1211,-0.115,-0.1235,-0.1168,0,0,0,0,-0.0609,-0.0615,-0.0657,-0.0726,-0.0829,-0.0924,-0.1024,-0.1073,-0.1157,-0.1092,-0.1205,-0.1163,-0.1216,-0.1149,-0.1149,-0.1149,-0.1149,-0.1149,-0.1149,-0.0505,-0.0588,-0.0637,-0.0743,-0.0824,-0.0989,-0.1071,-0.1147,-0.1185,-0.1232,-0.1218,-0.131,-0.1242,-0.1263,-0.1263,-0.1263,-0.1264,-0.1264,-0.1264,-0.0455,-0.0484,-0.06,-0.0671,-0.0813,-0.0918,-0.1105,-0.1179,-0.1282,-0.1267,-0.1321,-0.122,-0.127,-0.1269,-0.1268,-0.1267,-0.1267,-0.1266,-0.1266,-0.036,-0.0391,-0.0448,-0.0547,-0.0699,-0.0884,-0.1036,-0.1171,-0.1286,-0.1333,-0.131,-0.1343,-0.134,-0.1405,-0.1405,-0.1406,-0.1406,-0.1406,-0.1406,-0.0239,-0.0305,-0.0322,-0.044,-0.054,-0.0715,-0.0999,-0.1131,-0.1291,-0.1303,-0.1347,-0.1357,-0.1352,-0.1347,-0.1408,-0.1408,-0.1408,-0.1407,-0.1407,-0.0116,-0.0137,-0.0153,-0.0221,-0.046,-0.061,-0.0876,-0.1144,-0.127,-0.1336,-0.1328,-0.1332,-0.129,-0.1287,-0.1278,-0.1321,-0.132,-0.1319,0,0.0003,-0.0024,-0.0053,-0.0168,-0.0342,-0.0583,-0.0807,-0.1007,-0.1174,-0.1125,-0.1239,-0.1218,-0.1224,-0.1163,-0.116,-0.114,0,0,0,0.0116,0.0069,0.007,-0.0095,-0.0335,-0.0655,-0.0877,-0.0946,-0.1117,-0.1259,-0.1291,-0.1298,-0.137,-0.1415,-0.1359,-0.1353,-0.1341,0,0]},{"header":{"parameterUnit":"m.s-1","parameterCategory":2,"la1":30.2992,"la2":30.254,"lo1":-89.0895,"lo2":-89.0443,"dy":0.0025,"dx":0.0025,"nx":19,"ny":19,"refTime":"2026-05-09T09:00:00:Z","depth":"4","parameterNumber":3,"parameterNumberName":"V-component_of_CURRENTS"},"data":[0,0,0,-0.0463,-0.0463,-0.0455,-0.0455,-0.0409,-0.0408,0,0,0,0,0,0,0,0,0,0,0,-0.0462,-0.0462,-0.0463,-0.0463,-0.0455,-0.0455,-0.0409,-0.0408,0,0,0,0,0,0,0,0,0,0,0,-0.0462,-0.0462,-0.0463,-0.0463,-0.0455,-0.0455,-0.0409,-0.0421,0,0,0,0,0,0,0,0,0,0,-0.0432,-0.0444,-0.0462,-0.0463,-0.0463,-0.0455,-0.0455,-0.0422,-0.042,-0.0405,0,-0.0411,0,-0.0414,-0.0405,-0.0405,0,0,0,-0.0452,-0.0445,-0.0443,-0.0463,-0.0463,-0.0455,-0.0455,-0.0421,-0.0419,-0.0403,-0.041,-0.0409,-0.0413,-0.0405,-0.0405,-0.0405,-0.0405,0,0,-0.0452,-0.0458,-0.0445,-0.0442,-0.0469,-0.0456,-0.0455,-0.042,-0.0421,-0.041,-0.0408,-0.0413,-0.0405,-0.0404,-0.0404,-0.0405,0,0,0,-0.0461,-0.0458,-0.0457,-0.0444,-0.0448,-0.0456,-0.0455,-0.0422,-0.0422,-0.0408,-0.0412,-0.0404,-0.0404,-0.0404,-0.0405,-0.0477,0,0,0,-0.0461,-0.0464,-0.0458,-0.046,-0.045,-0.0441,-0.0458,-0.0425,-0.0421,-0.0412,-0.0404,-0.0403,-0.0404,-0.0404,-0.0474,-0.0538,0,0,0,-0.0461,-0.0464,-0.0466,-0.0461,-0.0463,-0.0442,-0.044,-0.0424,-0.0424,-0.0405,-0.0403,-0.0403,-0.0404,-0.0471,-0.0533,-0.0429,0,0,0,-0.0463,-0.0505,-0.0466,-0.0521,-0.0463,-0.0509,-0.044,-0.0458,-0.0451,-0.0404,-0.0404,-0.0404,-0.0471,-0.0529,-0.0428,-0.0394,0,0,0,-0.0526,-0.0513,-0.055,-0.0516,-0.0588,-0.0508,-0.0559,-0.051,-0.0452,-0.041,-0.041,-0.0475,-0.0532,-0.0429,-0.044,0,0,0,0,-0.0578,-0.06,-0.0616,-0.0645,-0.0651,-0.064,-0.0593,-0.0541,-0.0486,-0.0452,-0.047,-0.0505,-0.0436,-0.0414,-0.0408,-0.0408,-0.0408,-0.0408,-0.0408,-0.0638,-0.0663,-0.0732,-0.0754,-0.0766,-0.0731,-0.07,-0.0616,-0.0559,-0.053,-0.0559,-0.0533,-0.0518,-0.0534,-0.0535,-0.0535,-0.0535,-0.0535,-0.0536,-0.0733,-0.0768,-0.0801,-0.0882,-0.0869,-0.0891,-0.0791,-0.073,-0.0627,-0.0606,-0.0531,-0.0492,-0.0543,-0.0541,-0.054,-0.0539,-0.0539,-0.0538,-0.0538,-0.0752,-0.0775,-0.0847,-0.0934,-0.0986,-0.0966,-0.0905,-0.0835,-0.0704,-0.0673,-0.0529,-0.0546,-0.0537,-0.0586,-0.0585,-0.0585,-0.0585,-0.0585,-0.0585,-0.0729,-0.0802,-0.088,-0.0975,-0.1014,-0.1025,-0.0958,-0.0859,-0.0736,-0.0621,-0.0666,-0.0548,-0.0546,-0.0538,-0.0583,-0.0583,-0.0583,-0.0584,-0.0584,-0.0719,-0.0752,-0.0855,-0.0919,-0.1001,-0.0997,-0.0965,-0.0777,-0.0637,-0.051,-0.0531,-0.0534,-0.0481,-0.048,-0.0467,-0.0493,-0.0493,-0.0492,0,-0.0668,-0.0708,-0.0817,-0.0889,-0.0916,-0.0957,-0.0808,-0.0708,-0.0564,-0.0562,-0.0599,-0.0631,-0.063,-0.058,-0.0578,-0.0568,0,0,0,-0.0626,-0.0684,-0.0726,-0.0841,-0.0879,-0.0791,-0.0763,-0.0686,-0.0622,-0.0492,-0.0484,-0.0486,-0.0582,-0.0576,-0.05,-0.0498,-0.0479,0,0]}]]